sat.trackr.live / text

‹ back to catalog

STARLINK-30106

NORAD 56288 · 2023-056C

PAYLOAD ACTIVE UNKNOWN

§ Identity

Operator
Country
US
Launch date
2023-04-19
Launch site
AFETR
Launch vehicle
Mass (kg)
RCS (m²)

Purposes: comms

External: N2YO · Heavens-Above · Gunter

§ Orbital elements

Epoch: 2026-09-20T11:57:04.574304Z

Period
94.27 min
Inclination
43.0016°
Eccentricity
0.0001145
Mean motion
15.27581187 rev/d
Perigee alt
482.3 km
Apogee alt
483.8 km
Semi-major
6,861.2 km
B*
2.2550e-5
RAAN
188.7302°
Arg perigee
266.4656°
Mean anomaly
93.6065°
Rev number
18,983

§ Raw data

STARLINK-301061 56288U 23056C   26263.49796961  .00000359  00000+0  22550-4 0  99992 56288  43.0016 188.7302 0001145 266.4656  93.6065 15.27581187189833

JSON: /api/v1/satellites/56288 · /tle

For live sub-satellite position, see the globe view (requires WebGL).

§ Visibility from observer

Set your observer location to see the next 7 days of passes ≥ 10°. The values pass through the URL so the page stays shareable.

No JS? Fill the form by hand. The geolocation button needs JavaScript.